Regional Weather Roundup
Issued by NWS Columbia, SC

Home | Current Version | Previous Version | Text Only | Print | Product List | Glossary On
Versions: 1 2 3 4 5 6 7 8 9 10 11 12 13 14 15 16 17 18 19 20 21 22 23 24 25 26 27
000
ASUS42 KCAE 281510
RWRCAE
REGIONAL WEATHER ROUNDUP
NATIONAL WEATHER SERVICE COLUMBIA SC
1100 AM EDT WED JUN 28 2017

NOTE: "FAIR" INDICATES FEW OR NO CLOUDS BELOW 12,000 FEET WITH NO
SIGNIFICANT WEATHER AND/OR OBSTRUCTIONS TO VISIBILITY.

NOT ALL STATIONS ARE QUALITY CONTROLLED BY THE NATIONAL
WEATHER SERVICE. USE DATA WITH CAUTION...ESPECIALLY
DEWPOINT OBSERVATIONS.

SCZ001>056-GAZ040-063>065-077-281600-
...UPSTATE SOUTH CAROLINA...

CITY           SKY/WX    TMP DP  RH WIND       PRES   REMARKS
ANDERSON       SUNNY     78  56  46 NE9       30.21R
LIBERTY        SUNNY     77  55  46 SE5       30.21F
SPARTANBURG    SUNNY     73  52  46 E3        30.22S
CLEMSON        SUNNY     77  57  50 VRB5      30.22R
GREENVILLE     SUNNY     77  53  43 NE9       30.23R
GREENWOOD      SUNNY     78  56  46 VRB6      30.22R
GREER          SUNNY     76  54  46 NE8       30.21S
ROCK HILL      SUNNY     76  55  48 VRB3      30.22R
LAURENS        SUNNY     75  57  53 E5        30.22R


...CENTRAL SOUTH CAROLINA...

CITY           SKY/WX    TMP DP  RH WIND       PRES   REMARKS
COLUMBIA APT   MOSUNNY   82  54  37 E10       30.18R
MCENTIRE ANGB  MOSUNNY   81  55  40 E10       30.18R
ORANGEBURG     MOSUNNY   80  55  42 E10       30.17R
SUMTER SHAW    SUNNY     81  51  35 E14       30.16R
NEWBERRY       SUNNY     77  55  47 NE7       30.24R
AIKEN          FAIR      79  54  41 SE9       30.21R
BARNWELL       FAIR      82  61  47 E13       30.16S
MANNING        FAIR      79  59  50 E13G24    30.17S
CAMDEN         FAIR      79  55  44 CALM      30.20R
LANCASTER      SUNNY     77  55  47 NE7       30.22R
WINNSBORO      SUNNY     79  52  38 E10       30.20R


...EASTERN AND COASTAL SOUTH CAROLINA...

CITY           SKY/WX    TMP DP  RH WIND       PRES   REMARKS
MYRTLE BEACH   SUNNY     82  55  39 E12       30.18R
N MYRTLE BCH   SUNNY     82  54  37 E10       30.17R
CONWAY         FAIR      81  52  36 E7        30.18R HAZE
MARION         FAIR      79  55  44 E7        30.19R
HARTSVILLE     FAIR      79  55  44 E7        30.19S
FLORENCE       SUNNY     81  54  39 E13       30.19R
DARLINGTON     MOSUNNY   79  58  48 E9        30.20R
CHARLESTON APT PTSUNNY   82  64  54 E15G21    30.15R
MOUNT PLEASANT FAIR      82  66  57 E7        30.15R
WALTERBORO     PTSUNNY   81  63  54 E12G17    30.16S
BEAUFORT       PTSUNNY   82  69  64 E10       30.14S


...EASTERN GEORGIA...

CITY           SKY/WX    TMP DP  RH WIND       PRES   REMARKS
AUGUSTA BUSH F MOSUNNY   84  60  44 SE9       30.15R
AUGUSTA DANIEL SUNNY     83  55  38 E10       30.17R
THOMSON        SUNNY     81  64  56 S7        30.21S
WASHINGTON     FAIR      81  68  65 E3        30.18R
CLAXTON        FAIR      79  69  71 NE10      30.14R
SYLVANIA       MOSUNNY   81  69  67 E6        30.16R
STATESBORO     MOSUNNY   82  68  63 NE5       30.14S
SAVANNAH       CLOUDY    82  63  52 E10       30.14R


...SOUTHERN NORTH CAROLINA...

CITY           SKY/WX    TMP DP  RH WIND       PRES   REMARKS
CHARLOTTE      MOSUNNY   77  54  44 NE6       30.23R
MONROE         SUNNY     75  54  47 NE8       30.21R
WADESBORO      SUNNY     76  57  51 NE3       30.20R
ROCKINGHAM     SUNNY     78  55  45 NE5       30.19R
ASHEVILLE      SUNNY     71  50  47 S8        30.25F

$$




USA.gov is the U.S. government's official web portal to all federal, state and local government web resources and services.